Regional Weather Roundup
Issued by NWS

Home | Current Version | Previous Version | Text Only | Print | Product List | Glossary On
Versions: 1 2 3 4 5 6 7 8 9 10 11 12 13 14 15 16 17 18 19 20 21 22 23 24 25 26 27 28 29 30 31 32 33 34 35 36 37 38 39 40 41 42 43 44 45 46 47 48 49 50
000
ASUS45 KABQ 290110
RWRNM
NEW MEXICO REGIONAL WEATHER ROUNDUP
NATIONAL WEATHER SERVICE ALBUQUERQUE NM
700 PM MDT SUN MAY 28 2017

NOTE: "FAIR" MEANS FEW OR NO CLOUDS BELOW 12,000 FEET AGL WITH NO
       SIGNIFICANT WEATHER OR OBSTRUCTIONS TO VISION.

      THIS PRODUCT IS RELEASED AS TWO VERSIONS.  ONE VERSION NEAR
      THE TOP OF THE HOUR CONTAINING PRELIMINARY DATA FROM ALBUQUERQUE
      AND OTHER STATIONS.  A FINAL VERSION WITH ADDITIONAL DATA IS
      ISSUED ABOUT 10 MINUTES AFTER THE HOUR.

NMZ501-503-504-510>518-290200-
NORTHWEST PLATEAU/NORTHCENTRAL MOUNTAINS

CITY           SKY/WX    TMP DP  RH WIND       PRES   REMARKS
FARMINGTON     FAIR      76   8   7 NW12      30.13F
LOS ALAMOS     FAIR      65  24  21 NE5       30.26S
SANTA FE       FAIR      71  23  16 SW3       30.18S
TAOS           FAIR      66  23  19 SW16      30.25R
ANGEL FIRE     CLOUDY    60  29  30 SE21      30.31S

$$
NMZ402-403-502-505>509-290200-
WESTCENTRAL MOUNTAINS/SOUTHWEST MOUNTAINS

CITY           SKY/WX    TMP DP  RH WIND       PRES   REMARKS
GALLUP         FAIR      75  20  12 N8        30.17F
GRANTS         FAIR      73  20  14 CALM      30.19F
SILVER CITY    FAIR      80  18  10 SW8       30.10S

$$
NMZ407-409-411-412-290200-
SOUTHERN DESERTS

CITY           SKY/WX    TMP DP  RH WIND       PRES   REMARKS
DEMING         FAIR      86  24  10 NE5       30.02F
LAS CRUCES     FAIR      85  25  11 E3        30.06S
HOLLOMAN AFB   FAIR      86  27  11 S3        30.05F
ALAMOGORDO     FAIR      84  27  12 CALM      30.04S
T OR C         LGT RAIN  84  23  10 E3        30.04F

$$
NMZ519>523-290200-
CENTRAL VALLEYS/CENTRAL HIGHLANDS

CITY           SKY/WX    TMP DP  RH WIND       PRES   REMARKS
ALBUQUERQUE    FAIR      77  24  14 W6        30.13S
DOUBLE EAGLE   MOSUNNY   75  30  19 VRB7      30.16F
MORIARTY ARPT  FAIR      73  28  19 S7        30.20F
CLINES CORNERS FAIR      67  27  22 S10       30.25F
BELEN          FAIR      77  23  13 CALM      30.11F
SOCORRO        FAIR      79  24  12 CALM      30.08S

$$
NMZ524>526-539-540-290200-
SOUTHCENTRAL MOUNTAINS

CITY           SKY/WX    TMP DP  RH WIND       PRES   REMARKS
RUIDOSO        FAIR      64  34  32 SE15      30.27S

$$
NMZ527>531-290200-
NORTHEAST HIGHLANDS/NORTHEAST PLAINS

CITY           SKY/WX    TMP DP  RH WIND       PRES   REMARKS
LAS VEGAS      CLOUDY    63  27  25 E8        30.27R
RATON          FAIR      66  30  26 E9        30.22F
CLAYTON        FAIR      67  37  33 E6        30.20S

$$
NMZ532>537-290200-
EASTCENTRAL PLAINS

CITY           SKY/WX    TMP DP  RH WIND       PRES   REMARKS
SANTA ROSA     FAIR      74  31  20 SE10      30.15S
TUCUMCARI      FAIR      77  31  18 E7        30.12S
CANNON AFB     FAIR      75  31  20 E8        30.15S
CLOVIS AIRPORT FAIR      75  34  22 E9        30.15S

$$
NMZ028-029-538-290200-
SOUTHEAST PLAINS

CITY           SKY/WX    TMP DP  RH WIND       PRES   REMARKS
ROSWELL        FAIR      83  37  19 E8        30.07S
ARTESIA        FAIR      82  39  21 E9        30.06R
CARLSBAD       FAIR      83  40  21 E9        30.03S
HOBBS          FAIR      81  37  21 N15       30.08R


$$




USA.gov is the U.S. government's official web portal to all federal, state and local government web resources and services.